Location: ???????
(54.6339°N, 39.4245°E)
Time: 03:03:45
(UTC+00:00)

In-Cosmos 22 - Pass Details

Date: 19 May 2025
Orbit: 784 x 874 km, 81.2° (Epoch: 14 June)

Event Time Altitude Azimuth Distance (km) Brightness Sun altitude
Exits shadow 21:49:28 23° 180° (S) 1,779 5.3 -15.1°
Maximum altitude 21:53:11 73° 100° (E) 915 4.3 -15.0°
Drops below altitude 10° 21:58:58 10° 17° (NNE) 2,540 8.1 -14.9°
Sets 22:01:25 0° 16° (NNE) 3,482 9.3 -14.8°
